Location: Allison Elementary School
(34.0784°N, 117.7317°W)
Time: 02:32:14
(UTC+00:00)

SL-16 R/B - Pass Details

Date: 15 November 2019
Orbit: 842 x 846 km, 71.0° (Epoch: 06 December)

Event Time Altitude Azimuth Distance (km) Brightness Sun altitude
Rises 03:08:24 0° 185° (S) 3,384 5.4 -29.1°
Reaches altitude 10° 03:10:54 10° 181° (S) 2,453 4.6 -29.7°
Enters shadow 03:11:38 14° 178° (S) 2,187 4.3 -29.8°
